Flag for Germany Weather past 2 weeks in Gummersbach, North Rhine-Westphalia, Germany

Now
64 °F

Sunny.


Feels Like: 64 °F
Forecast: 36 / 55 °F
Wind: 8 mph from Northwest

Location: Koeln / Bonn

Current Time: Apr 21, 2015 at 1:46:23 PM

Latest Report: Apr 21, 2015 at 1:20 PM


Visibility: 10 mi

Pressure: 30.42 "Hg

Humidity: 37%

Dew point: 37 °F

Location of GummersbachLocation

Historic Weather in Gummersbach — Graph

°F

Gummersbach temperature yesterday

Maximum temperature yesterday: 66 °F (at 1:50 PM)
Minimum temperature yesterday: 37 °F (at 5:20 AM)
Average temperature yesterday: 54 °F

Past Weeks' High & Low Weather Summary

 TemperatureHumidityPressure
High77 °F (Apr 15, 4:20 PM)100% (Apr 7, 4:20 AM)30.66 "Hg (Apr 7, 4:20 AM)
Low27 °F (Apr 7, 6:50 AM)16% (Apr 10, 6:20 PM)29.89 "Hg (Apr 16, 5:50 PM)
Average52 °F59%30.26 "Hg
* Reported Apr 6 12:20 PM — Apr 21 12:20 PM, Gummersbach, Weather by CustomWeather, © 2015

Note: Actual official high and low records may vary slightly from our data, if they occured in-between our weather recording intervals... More about our weather records

Advertising

Gummersbach weather history for previous 24 hours

 ConditionsComfort  
Time TempWeatherWind HumidityBarometerVisibility
12:20 PM
Tue, Apr 21
63 °FSunny.6 mph45%30.45 "Hg10 mi
11:50 AM61 °FSunny.7 mph52%30.45 "Hg10 mi
11:20 AM57 °FPassing clouds.6 mph55%30.45 "HgN/A
10:50 AM55 °FSunny.5 mph63%30.45 "Hg10 mi
10:20 AM54 °FSunny.3 mph63%30.45 "Hg10 mi
9:50 AM52 °FSunny.2 mph67%30.45 "Hg10 mi
9:20 AM50 °FSunny.3 mph71%30.45 "Hg10 mi
8:50 AM48 °FSunny.3 mph71%30.45 "Hg10 mi
8:20 AM46 °FSunny.2 mph76%30.42 "Hg10 mi
7:50 AM41 °FSunny.2 mph87%30.42 "Hg10 mi
7:20 AM37 °FClear.2 mph93%30.42 "Hg10 mi
6:50 AM37 °FFog.5 mph93%30.42 "HgN/A
6:20 AM37 °FFog.2 mph87%30.42 "HgN/A
5:20 AM39 °FClear.3 mph87%30.39 "Hg10 mi
4:50 AM37 °FPassing clouds.5 mph87%30.39 "HgN/A
4:20 AM39 °FClear.3 mph87%30.39 "Hg10 mi
3:50 AM39 °FClear.6 mph87%30.39 "Hg10 mi
3:20 AM41 °FClear.3 mph81%30.39 "Hg10 mi
2:50 AM41 °FClear.6 mph81%30.39 "Hg10 mi
2:20 AM43 °FClear.3 mph76%30.39 "Hg10 mi
1:50 AM48 °FClear.8 mph66%30.39 "Hg10 mi
1:20 AM48 °FClear.9 mph66%30.36 "Hg10 mi
12:50 AM48 °FClear.8 mph66%30.36 "Hg10 mi
12:20 AM48 °FClear.7 mph62%30.36 "Hg10 mi
11:50 PM
Mon, Apr 20
50 °FClear.7 mph62%30.36 "Hg10 mi
11:20 PM52 °FClear.6 mph54%30.36 "Hg10 mi
10:50 PM54 °FClear.6 mph51%30.36 "Hg10 mi
10:20 PM54 °FClear.5 mph51%30.36 "Hg10 mi
9:50 PM55 °FClear.2 mph47%30.36 "Hg10 mi
9:20 PM57 °FSunny.5 mph41%30.36 "Hg10 mi
8:50 PM61 °FSunny.6 mph34%30.33 "Hg10 mi
8:20 PM63 °FSunny.8 mph32%30.33 "Hg10 mi
7:50 PM64 °FSunny.9 mph30%30.33 "Hg10 mi
7:20 PM64 °FSunny.12 mph28%30.30 "Hg10 mi
6:50 PM66 °FSunny.12 mph26%30.30 "Hg10 mi
6:20 PM66 °FSunny.13 mph26%30.30 "Hg10 mi
5:50 PM66 °FSunny.12 mph28%30.30 "Hg10 mi
5:20 PM66 °FSunny.10 mph26%30.30 "Hg10 mi
4:50 PM66 °FSunny.12 mph28%30.30 "Hg10 mi
4:20 PM66 °FSunny.10 mph26%30.30 "Hg10 mi
3:50 PM66 °FSunny.9 mph24%30.30 "Hg10 mi
3:20 PM66 °FSunny.10 mph26%30.30 "Hg10 mi
2:50 PM66 °FSunny.8 mph28%30.30 "Hg10 mi
2:20 PM66 °FSunny.13 mph30%30.30 "Hg10 mi
1:50 PM66 °FPassing clouds.7 mph30%30.33 "HgN/A
1:20 PM64 °FSunny.10 mph26%30.33 "Hg10 mi
Weather by CustomWeather, © 2015

See weather overviewHow to use our weather pages